Date String (YYYY-MM-DD hh:mm:ss) UTC,Instrument flags,absolute air pressure of the measurement (hPa),sample flow rate (lpm),inlet stack bypass flow (lpm),air temperature of the measurement (°C),ambient temperature measured by the external sensor (°C),aerosol sample conditioner tube jacket temperature (°C),OPC LED temperature (°C),internal box temperature (°C),relative humidity of the measurement (%),span deviation,mass concentration of particles derived from Lorenz-Mie calculation of OPC scattering (μg/m³),mass concentration of particles derived from Lorenz-Mie calculation of OPC scattering (μg/m³),mass concentration of particles derived from Lorenz-Mie calculation of OPC scattering (μg/m³)
DateTimeUTC,F1_M11,P_M11,Q1_M11,Q2_M11,T1_M11,T2_M11,T3_M11,T4_M11,T5_M11,U1_M11,ZSPAN_M11,X2_M11,X0_M11,X1_M11
2024-04-24 16:00:00,SystemResetWarning,0829.1,5.00,000.00,025.3,024.6,000.0,033.7,027.1,025.0,0000.0,0005.73,0012.70,0004.65
2024-04-24 16:01:00,SystemResetWarning,0829.1,5.00,000.00,025.3,024.6,000.0,033.7,027.1,025.2,0000.0,0005.75,0012.84,0004.67
2024-04-24 16:02:00,SystemResetWarning,0829.2,5.00,000.00,025.3,024.7,000.0,033.7,027.2,025.2,0000.0,0005.76,0013.44,0004.69
2024-04-24 16:03:00,SystemResetWarning,0829.2,5.00,000.00,025.3,024.7,000.0,033.7,027.2,024.7,0000.0,0005.78,0014.00,0004.68
2024-04-24 16:04:00,SystemResetWarning,0829.2,4.99,000.00,025.3,024.7,000.0,033.7,027.2,024.7,0000.0,0005.76,0014.09,0004.68
2024-04-24 16:05:00,SystemResetWarning,0829.2,5.01,000.00,025.3,024.7,000.0,033.7,027.2,024.3,0000.0,0005.75,0014.09,0004.67
2024-04-24 16:06:00,SystemResetWarning,0829.3,5.01,000.00,025.3,024.7,000.0,033.7,027.2,023.8,0000.0,0005.79,0013.75,0004.66
2024-04-24 16:07:00,SystemResetWarning,0829.3,5.00,000.00,025.4,024.7,000.0,033.7,027.2,023.6,0000.0,0005.81,0013.57,0004.64
2024-04-24 16:08:00,SystemResetWarning,0829.3,4.99,000.00,025.4,024.7,000.0,033.7,027.2,023.5,0000.0,0005.85,0013.15,0004.64
2024-04-24 16:09:00,SystemResetWarning,0829.3,5.00,000.00,025.4,024.7,000.0,033.8,027.2,023.6,0000.0,0005.83,0013.01,0004.60
2024-04-24 16:10:00,SystemResetWarning,0829.3,5.01,000.00,025.4,024.7,000.0,033.8,027.2,024.0,0000.0,0005.84,0013.42,0004.57
2024-04-24 16:11:00,SystemResetWarning,0829.2,5.00,000.00,025.4,024.8,000.0,033.8,027.2,023.9,0000.0,0005.86,0014.14,0004.54
2024-04-24 16:12:00,SystemResetWarning,0829.2,5.00,000.00,025.4,024.8,000.0,033.8,027.2,023.8,0000.0,0005.83,0013.99,0004.51
2024-04-24 16:13:00,SystemResetWarning,0829.2,5.00,000.00,025.4,024.8,000.0,033.8,027.3,024.2,0000.0,0005.81,0013.91,0004.50
2024-04-24 16:14:00,SystemResetWarning,0829.2,5.00,000.00,025.4,024.8,000.0,033.8,027.3,024.5,0000.0,0005.74,0013.08,0004.47
2024-04-24 16:15:00,SystemResetWarning,0829.2,5.00,000.00,025.4,024.8,000.0,033.8,027.3,024.3,0000.0,0005.70,0012.79,0004.44
2024-04-24 16:16:00,SystemResetWarning,0829.2,5.00,000.00,025.4,024.8,000.0,033.8,027.3,024.6,0000.0,0005.71,0013.60,0004.42
2024-04-24 16:17:00,SystemResetWarning,0829.1,5.00,000.00,025.4,024.8,000.0,033.8,027.3,025.5,0000.0,0005.68,0015.08,0004.41
2024-04-24 16:18:00,SystemResetWarning,0829.1,5.00,000.00,025.5,024.8,000.0,033.8,027.3,024.7,0000.0,0005.67,0016.82,0004.40
2024-04-24 16:19:00,SystemResetWarning,0829.1,5.00,000.00,025.5,024.8,000.0,033.9,027.3,024.8,0000.0,0005.65,0017.15,0004.43
2024-04-24 16:20:00,SystemResetWarning,0829.1,4.99,000.00,025.5,024.8,000.0,033.9,027.3,024.8,0000.0,0005.70,0016.79,0004.47
2024-04-24 16:21:00,SystemResetWarning,0829.1,5.00,000.00,025.5,024.8,000.0,033.9,027.3,025.1,0000.0,0005.70,0016.98,0004.49
2024-04-24 16:22:00,SystemResetWarning,0829.2,5.00,000.00,025.5,024.8,000.0,033.9,027.3,025.1,0000.0,0005.71,0017.37,0004.51
2024-04-24 16:23:00,SystemResetWarning,0829.2,5.00,000.00,025.5,024.8,000.0,033.9,027.3,024.7,0000.0,0005.74,0017.71,0004.51
2024-04-24 16:24:00,SystemResetWarning,0829.2,5.00,000.00,025.5,024.8,000.0,033.9,027.4,024.4,0000.0,0005.80,0017.38,0004.52
2024-04-24 16:25:00,SystemResetWarning,0829.2,5.00,000.00,025.5,024.8,000.0,033.9,027.4,024.6,0000.0,0005.91,0017.52,0004.55
2024-04-24 16:26:00,SystemResetWarning,0829.2,5.00,000.00,025.6,024.9,000.0,033.9,027.4,024.6,0000.0,0005.96,0017.52,0004.58
2024-04-24 16:27:00,SystemResetWarning,0829.2,5.00,000.00,025.6,024.9,000.0,033.9,027.4,025.3,0000.0,0006.02,0016.74,0004.61
2024-04-24 16:28:00,SystemResetWarning,0829.2,5.00,000.00,025.6,024.9,000.0,034.0,027.4,026.2,0000.0,0006.06,0015.76,0004.66
2024-04-24 16:29:00,SystemResetWarning,0829.2,5.00,000.00,025.6,024.9,000.0,034.0,027.4,027.0,0000.0,0006.12,0015.54,0004.73
2024-04-24 16:30:00,SystemResetWarning,0829.2,5.00,000.00,025.6,025.0,000.0,034.0,027.4,027.1,0000.0,0006.18,0015.78,0004.78
2024-04-24 16:31:00,SystemResetWarning,0829.1,4.99,000.00,025.6,025.0,000.0,034.0,027.5,027.6,0000.0,0006.18,0015.85,0004.82
2024-04-24 16:32:00,SystemResetWarning,0829.1,5.00,000.00,025.7,025.0,000.0,034.0,027.5,027.2,0000.0,0006.34,0015.44,0004.92
2024-04-24 16:33:00,SystemResetWarning,0829.1,5.00,000.00,025.7,025.0,000.0,034.0,027.5,026.8,0000.0,0006.41,0014.60,0005.01
2024-04-24 16:34:00,SystemResetWarning,0829.1,5.00,000.00,025.7,025.1,000.0,034.0,027.5,027.0,0000.0,0006.47,0014.69,0005.11
2024-04-24 16:35:00,SystemResetWarning,0829.1,5.00,000.00,025.7,025.1,000.0,034.0,027.5,026.5,0000.0,0006.59,0015.15,0005.21
2024-04-24 16:36:00,SystemResetWarning,0829.1,5.00,000.00,025.7,025.1,000.0,034.1,027.6,026.2,0000.0,0006.64,0015.43,0005.30
2024-04-24 16:37:00,SystemResetWarning,0829.0,5.00,000.00,025.7,025.1,000.0,034.1,027.6,026.0,0000.0,0006.71,0015.87,0005.41
2024-04-24 16:38:00,SystemResetWarning,0829.1,5.00,000.00,025.7,025.1,000.0,034.1,027.5,026.3,0000.0,0006.77,0016.46,0005.52
2024-04-24 16:39:00,SystemResetWarning,0829.1,5.00,000.00,025.7,024.9,000.0,034.1,027.3,026.3,0000.0,0006.84,0016.62,0005.61
2024-04-24 16:40:00,SystemResetWarning,0829.0,5.00,000.00,025.6,024.9,000.0,034.1,027.3,026.1,0000.0,0006.86,0016.36,0005.65
2024-04-24 16:41:00,SystemResetWarning,0829.0,4.99,000.00,025.6,024.8,000.0,034.1,027.3,026.0,0000.0,0006.91,0016.74,0005.68
2024-04-24 16:42:00,SystemResetWarning,0828.9,5.00,000.00,025.5,024.6,000.0,034.1,027.2,025.9,0000.0,0007.00,0016.77,0005.73
2024-04-24 16:43:00,SystemResetWarning,0829.0,5.00,000.00,025.5,024.6,000.0,034.1,027.2,026.1,0000.0,0007.02,0016.89,0005.72
2024-04-24 16:44:00,SystemResetWarning,0829.0,5.01,000.00,025.6,024.7,000.0,034.1,027.3,026.1,0000.0,0007.01,0016.84,0005.70
2024-04-24 16:45:00,SystemResetWarning,0829.0,5.01,000.00,025.6,024.7,000.0,034.1,027.3,026.1,0000.0,0007.01,0016.38,0005.68
2024-04-24 16:46:00,SystemResetWarning,0829.0,5.00,000.00,025.6,024.8,000.0,034.1,027.4,026.6,0000.0,0007.00,0016.22,0005.68
2024-04-24 16:47:00,SystemResetWarning,0829.0,4.99,000.00,025.6,024.9,000.0,034.1,027.4,026.7,0000.0,0007.04,0016.14,0005.70
2024-04-24 16:48:00,SystemResetWarning,0828.9,4.99,000.00,025.6,024.9,000.0,034.1,027.5,026.4,0000.0,0007.10,0016.20,0005.72
2024-04-24 16:49:00,SystemResetWarning,0829.0,4.99,000.00,025.6,024.9,000.0,034.1,027.5,026.6,0000.0,0007.17,0015.88,0005.73
2024-04-24 16:50:00,SystemResetWarning,0828.9,5.00,000.00,025.7,025.0,000.0,034.1,027.5,026.8,0000.4,0007.25,0015.96,0005.75
2024-04-24 16:51:00,SystemResetWarning,0828.9,5.00,000.00,025.7,025.0,000.0,034.1,027.5,026.9,0000.2,0007.33,0016.91,0005.79
2024-04-24 16:52:00,SystemResetWarning,0828.9,5.01,000.00,025.7,025.0,000.0,034.1,027.5,026.7,0000.0,0007.42,0016.88,0005.85
2024-04-24 16:53:00,SystemResetWarning,0828.9,5.00,000.00,025.7,025.0,000.0,034.1,027.5,026.6,0000.3,0007.44,0017.59,0005.88
2024-04-24 16:54:00,SystemResetWarning,0828.9,5.01,000.00,025.7,025.1,000.0,034.1,027.6,026.8,0000.4,0007.44,0017.91,0005.95
2024-04-24 16:55:00,SystemResetWarning,0828.8,5.00,000.00,025.7,025.1,000.0,034.1,027.6,027.1,0001.3,0007.45,0018.13,0006.01
2024-04-24 16:56:00,SystemResetWarning,0828.9,5.00,000.00,025.8,025.1,000.0,034.1,027.6,027.4,0000.6,0007.52,0018.29,0006.10
2024-04-24 16:57:00,SystemResetWarning,0829.0,5.00,000.00,025.8,025.1,000.0,034.2,027.6,027.9,0002.2,0007.62,0018.68,0006.18
2024-04-24 16:58:00,SystemResetWarning,0829.0,5.00,000.00,025.8,025.1,000.0,034.2,027.6,027.0,0001.8,0007.67,0018.57,0006.23
2024-04-24 16:59:00,SystemResetWarning,0829.0,5.00,000.00,025.8,025.2,000.0,034.2,027.7,026.9,0001.5,0007.76,0018.69,0006.28
